Find Starlink 11571

NORAD ID: 62986 Int'l Des: 2025-031 Owner: SPXS Country: US Constellation: starlink operational
又名: STARLINK-11571 [DTC] celestrak
LEOCIRCULAR

当前视图

正在加载3D地球...

About Starlink 11571

Starlink 11571 (NORAD 62986) is a starlink constellation satellite (v2 mini d2c) launched Feb 11, 2025 by SPXS of US. It operates in LEO, CIRCULAR orbit with a mass of 960.00 kg.

即将过境

Passes for default location (London). Set your location on the main map for personalized predictions.

高度历史

Loading altitude history...

两行轨道根数

1 62986U 25031F 26264.05892728 .00131687 00000-0 10110-2 0 9994
2 62986 42.9990 263.4158 0001709 251.7247 108.3435 15.70899484 93472
Epoch: Sep 21, 2026 • Age: 10 hours

当前状态

高度 367.3 km
远地点 / 近地点 N/A
速度 7.69 km/s
星下点 -41.00°S, 26.19°W
发射日期 Feb 11, 2025
运行时间 1.6 years
类型 internet

技术详情

分类 Payload
质量 960.00 kg
干质量 910.00 kg
长度 0.30 m
跨度 29.00 m
形状 ? Box + pan
制造商 SPXS
平台类型 Starlink V2MD
阶段状态 In Orbit
所有者/国家 SPXS/US

Most Searched